User: anonymous   Login
Location: Mentone
(34.5413°N, 85.5351°W)
Time: 21:33:52
(UTC-05:00)
Language:

S-56A Canister/Altair - Orbit

View from above orbital plane
View from above orbital plane
View from above satellite
View from above satellite

Ground track
Ground track

The orbit data is extracted from the following two-line orbital elements,

1    82U 61004B   17203.32042604 -.00000008 +00000-0 +38382-4 0  9992
2    82 038.8533 167.0825 1170479 002.9402 357.7470 12.25851820677576
Epoch (UTC): 22 July 2017 07:41:24
Eccentricity: 0.1170479
inclination: 38.8533°
perigee height: 637 km
apogee height: 2497 km
right ascension of ascending node: 167.0825°
argument of perigee: 2.9402°
revolutions per day: 12.25851820
mean anomaly at epoch: 357.7470°
orbit number at epoch: 67757

The dashed part of the orbit path shows where the satellite is in the earth's shadow,  

DLR